F4DVI Weather Reports


Display with metric or nautical units.
time (UTC)temp
F
wind
direction
speed
MPH
gust
MPH
rain 1hr
in
rain 24hr
in
rain mn
in
humidity
%
barometer
mb
20260510005823 61 189 3.0 7.0 0.00 0.00 0.00 71
20260510005323 60 199 0.0 6.0 0.00 0.00 0.00 71
20260510004823 60 227 1.0 5.0 0.00 0.00 0.00 71
20260510004323 60 210 0.0 3.0 0.00 0.00 0.00 72
20260510003823 59 123 2.0 5.0 0.00 0.00 0.00 72
20260510003323 59 206 2.0 3.0 0.00 0.00 0.00 72
20260510002823 59 60 0.0 0.0 0.00 0.00 0.00 70
20260510002323 59 60 0.0 0.0 0.00 0.00 0.00 70
20260510001823 58 60 0.0 0.0 0.00 0.00 0.00 69
20260510001323 60 60 0.0 0.0 0.00 0.00 0.00 69
20260510000823 60 60 0.0 0.0 0.00 0.00 0.00 69
20260510000323 59 60 0.0 0.0 0.00 0.00 0.00 69
20260509235823 60 60 0.0 0.0 0.00 0.00 0.00 69
20260509235323 61 60 0.0 0.0 0.00 0.00 0.00 70
20260509234823 61 60 0.0 0.0 0.00 0.00 0.00 70
20260509234323 60 60 0.0 0.0 0.00 0.00 0.00 71
20260509233823 59 60 0.0 10.0 0.00 0.01 0.00 72
20260509233323 59 185 0.0 0.0 0.00 0.01 0.00 71
20260509232823 58 185 0.0 0.0 0.00 0.01 0.00 71
20260509232323 58 185 0.0 0.0 0.00 0.01 0.00 71
20260509231823 59 185 0.0 0.0 0.00 0.01 0.00 71
20260509231323 58 185 0.0 0.0 0.00 0.01 0.00 69
20260509230823 58 185 0.0 0.0 0.00 0.01 0.00 69
20260509230323 59 185 0.0 0.0 0.00 0.01 0.00 69
20260509225823 59 185 0.0 0.0 0.00 0.01 0.00 68
20260509225323 58 185 0.0 0.0 0.00 0.01 0.00 67
20260509224823 59 185 0.0 0.0 0.00 0.01 0.01 68
20260509224323 58 185 0.0 0.0 0.00 0.01 0.01 67
20260509223823 59 185 0.0 0.0 0.00 0.01 0.01 67
20260509223323 59 185 0.0 0.0 0.00 0.01 0.01 67
20260509222823 59 185 0.0 0.0 0.00 0.01 0.01 66
20260509222323 59 185 0.0 0.0 0.00 0.01 0.01 66
20260509221823 59 185 0.0 0.0 0.00 0.01 0.01 66
20260509221323 60 185 0.0 0.0 0.00 0.01 0.01 66
20260509220823 59 185 0.0 0.0 0.00 0.01 0.01 66
20260509220323 59 185 0.0 0.0 0.00 0.01 0.01 67
20260509215823 60 185 0.0 0.0 0.00 0.01 0.01 67
20260509215323 59 185 0.0 0.0 0.00 0.01 0.01 66
20260509214823 60 185 0.0 0.0 0.00 0.01 0.01 66
20260509214323 59 185 0.0 0.0 0.00 0.01 0.01 67
20260509213823 59 185 0.0 0.0 0.00 0.01 0.01 67
20260509213323 59 185 0.0 0.0 0.00 0.01 0.01 67
20260509212823 59 185 0.0 0.0 0.00 0.01 0.01 65
20260509212323 59 185 0.0 0.0 0.00 0.01 0.01 65
20260509211823 59 185 0.0 0.0 0.00 0.01 0.01 64
20260509211323 59 185 0.0 0.0 0.00 0.01 0.01 64
20260509210823 59 185 0.0 0.0 0.00 0.01 0.01 63
20260509210323 59 185 0.0 0.0 0.00 0.01 0.01 63
20260509205823 59 185 0.0 0.0 0.00 0.01 0.01 62
20260509205323 59 185 0.0 0.0 0.00 0.01 0.01 62
20260509204823 60 185 0.0 0.0 0.00 0.01 0.01 62
20260509204323 60 185 0.0 0.0 0.00 0.01 0.01 61
20260509203823 60 185 0.0 0.0 0.00 0.01 0.01 62
20260509203323 60 185 0.0 0.0 0.00 0.01 0.01 61
20260509202823 61 185 0.0 0.0 0.00 0.01 0.01 60
20260509202323 61 185 0.0 0.0 0.00 0.01 0.01 60
20260509201823 62 185 0.0 0.0 0.00 0.01 0.01 58
20260509201323 63 185 0.0 0.0 0.00 0.01 0.01 59
20260509200823 62 185 0.0 0.0 0.00 0.01 0.01 58
20260509200323 62 185 0.0 0.0 0.00 0.01 0.01 58
20260509195823 63 185 0.0 0.0 0.00 0.01 0.01 58
20260509195323 64 185 0.0 0.0 0.00 0.01 0.01 56
20260509194823 64 185 0.0 0.0 0.00 0.01 0.01 55
20260509194323 65 185 0.0 0.0 0.00 0.01 0.01 55
20260509193823 65 185 0.0 0.0 0.00 0.01 0.01 56
20260509193323 65 185 0.0 0.0 0.00 0.01 0.01 52
20260509192823 67 185 0.0 0.0 0.00 0.01 0.01 52
20260509192323 67 185 0.0 0.0 0.00 0.01 0.01 51
20260509191823 68 185 0.0 0.0 0.00 0.01 0.01 49
20260509191323 68 185 0.0 0.0 0.00 0.01 0.01 49
20260509190823 69 185 0.0 0.0 0.00 0.01 0.01 47
20260509190323 70 185 0.0 0.0 0.00 0.01 0.01 46
20260509185823 71 185 0.0 0.0 0.00 0.01 0.01 45
20260509185323 71 185 0.0 0.0 0.00 0.01 0.01 44
20260509184823 72 185 0.0 0.0 0.00 0.01 0.01 44
20260509184323 72 147 0.0 0.0 0.00 0.01 0.01 43
20260509183823 72 184 0.0 1.0 0.00 0.01 0.01 42
20260509183323 73 213 0.0 4.0 0.00 0.01 0.01 41
20260509182823 73 253 1.0 2.0 0.00 0.01 0.01 41
20260509182323 73 157 0.0 2.0 0.00 0.01 0.01 40
20260509181823 73 144 1.0 1.0 0.00 0.01 0.01 39
20260509181323 75 181 0.0 0.0 0.00 0.01 0.01 39
20260509180823 74 181 0.0 1.0 0.00 0.01 0.01 38
20260509180323 75 196 0.0 4.0 0.00 0.01 0.01 38
20260509175823 76 171 1.0 4.0 0.00 0.01 0.01 37
20260509175323 76 225 0.0 5.0 0.00 0.01 0.01 37
20260509174823 76 244 5.0 6.0 0.00 0.01 0.01 36
20260509174323 76 164 1.0 2.0 0.00 0.01 0.01 36
20260509173823 76 150 0.0 3.0 0.00 0.01 0.01 35
20260509173323 77 217 0.0 4.0 0.00 0.01 0.01 34
20260509172823 77 130 0.0 3.0 0.00 0.01 0.01 33
20260509172323 78 160 0.0 3.0 0.00 0.01 0.01 32
20260509171823 79 136 3.0 4.0 0.00 0.01 0.01 30
20260509171323 80 175 3.0 7.0 0.00 0.01 0.01 29
20260509170823 82 187 1.0 5.0 0.00 0.01 0.01 28
20260509170323 83 133 4.0 5.0 0.00 0.01 0.01 27
20260509165823 84 63 4.0 5.0 0.00 0.01 0.01 26
20260509165323 84 123 5.0 7.0 0.00 0.01 0.01 25
20260509164823 85 164 3.0 8.0 0.00 0.01 0.01 24
20260509164323 87 135 6.0 9.0 0.00 0.01 0.01 23
20260509163823 87 150 6.0 7.0 0.00 0.01 0.01 23
20260509163324 87 116 4.0 6.0 0.00 0.01 0.01 23
20260509162824 87 101 4.0 7.0 0.00 0.01 0.01 23
20260509162323 89 113 4.0 8.0 0.00 0.01 0.01 22
20260509161824 88 77 0.0 6.0 0.00 0.01 0.01 21
20260509161324 88 68 3.0 8.0 0.00 0.01 0.01 21
20260509160823 89 229 1.0 6.0 0.00 0.01 0.01 20
20260509160323 91 182 4.0 8.0 0.00 0.01 0.01 19
20260509155824 91 71 1.0 6.0 0.00 0.01 0.01 20
20260509155324 91 142 1.0 5.0 0.00 0.01 0.01 20
20260509154824 91 64 0.0 5.0 0.00 0.01 0.01 20
20260509154324 90 102 2.0 9.0 0.00 0.01 0.01 20
20260509153824 92 170 3.0 6.0 0.00 0.01 0.01 20
20260509153324 92 116 2.0 6.0 0.00 0.01 0.01 20
20260509152824 91 150 3.0 7.0 0.00 0.01 0.01 19
20260509152324 93 177 5.0 9.0 0.00 0.01 0.01 20
20260509151824 93 151 6.0 8.0 0.00 0.01 0.01 19
20260509151324 91 246 1.0 4.0 0.00 0.01 0.01 20
20260509150824 89 187 1.0 7.0 0.00 0.01 0.01 21
20260509150324 89 106 3.0 8.0 0.00 0.01 0.01 21
20260509145824 89 160 2.0 9.0 0.00 0.01 0.01 21
20260509145324 91 118 7.0 8.0 0.00 0.01 0.01 20
20260509144824 93 126 5.0 8.0 0.00 0.01 0.01 19
20260509144324 93 95 4.0 9.0 0.00 0.01 0.01 18
20260509143824 91 92 7.0 7.0 0.00 0.01 0.01 21
20260509143324 88 118 5.0 5.0 0.00 0.01 0.01 23
20260509142824 86 109 3.0 7.0 0.00 0.01 0.01 26
20260509142324 84 75 4.0 8.0 0.00 0.01 0.01 27
20260509141824 85 80 4.0 7.0 0.00 0.01 0.01 26
20260509141328 86 67 1.0 6.0 0.00 0.01 0.01 24
20260509140824 91 181 2.0 8.0 0.00 0.01 0.01 21
20260509140324 93 60 2.0 11.0 0.00 0.01 0.01 20
20260509135824 93 167 5.0 9.0 0.00 0.01 0.01 20
20260509135324 92 59 1.0 9.0 0.00 0.01 0.01 20
20260509134824 91 182 4.0 8.0 0.00 0.01 0.01 21
20260509134324 90 125 4.0 9.0 0.00 0.01 0.01 22
20260509133824 91 78 5.0 8.0 0.00 0.01 0.01 21
20260509133324 91 185 3.0 7.0 0.00 0.01 0.01 22
20260509132824 89 196 3.0 7.0 0.00 0.01 0.01 22
20260509132324 92 205 4.0 5.0 0.00 0.01 0.01 19
20260509131824 94 129 1.0 9.0 0.00 0.01 0.01 20
20260509131324 93 174 6.0 6.0 0.00 0.01 0.01 20
20260509130824 93 102 1.0 8.0 0.00 0.01 0.01 20
20260509130324 93 164 6.0 8.0 0.00 0.01 0.01 20
20260509125824 93 220 3.0 9.0 0.00 0.01 0.01 20
20260509125324 93 209 4.0 8.0 0.00 0.01 0.01 19
20260509124824 94 115 6.0 9.0 0.00 0.01 0.01 20
20260509124324 93 101 3.0 7.0 0.00 0.01 0.01 20
20260509123824 93 158 2.0 6.0 0.00 0.01 0.01 20
20260509123324 93 227 0.0 6.0 0.00 0.01 0.01 21
20260509122824 92 168 4.0 5.0 0.00 0.01 0.01 22
20260509122324 90 188 1.0 8.0 0.00 0.01 0.01 23
20260509121824 91 11 1.0 6.0 0.00 0.01 0.01 22
20260509121324 90 84 1.0 6.0 0.00 0.01 0.01 22
20260509120824 89 54 2.0 8.0 0.00 0.01 0.01 23
20260509120324 89 143 4.0 6.0 0.00 0.01 0.01 24
20260509115824 88 54 0.0 7.0 0.00 0.01 0.01 25
20260509115324 89 80 1.0 8.0 0.00 0.01 0.01 25
20260509114824 88 52 0.0 8.0 0.00 0.01 0.01 24
20260509114324 89 67 2.0 6.0 0.00 0.01 0.01 27
20260509113824 88 144 6.0 10.0 0.00 0.01 0.01 27
20260509113324 87 171 4.0 7.0 0.00 0.01 0.01 27
20260509112824 87 106 2.0 8.0 0.00 0.01 0.01 28
20260509112324 87 139 4.0 8.0 0.00 0.01 0.01 28
20260509111824 87 164 8.0 8.0 0.00 0.01 0.01 27
20260509111324 87 142 1.0 8.0 0.00 0.01 0.01 28
20260509110824 87 99 3.0 6.0 0.00 0.01 0.01 27
20260509110324 87 71 2.0 6.0 0.00 0.01 0.01 29
20260509105824 86 35 0.0 7.0 0.00 0.01 0.01 28
20260509105324 86 40 0.0 6.0 0.00 0.01 0.01 30
20260509104824 85 60 2.0 6.0 0.00 0.01 0.01 30
20260509104324 84 47 0.0 7.0 0.00 0.01 0.01 31
20260509103824 85 80 5.0 7.0 0.00 0.01 0.01 31
20260509103324 84 8 0.0 5.0 0.00 0.01 0.01 31
20260509102824 84 74 2.0 6.0 0.00 0.01 0.01 31
20260509102324 84 97 5.0 7.0 0.00 0.01 0.01 32
20260509101824 84 157 1.0 3.0 0.00 0.01 0.01 33
20260509101324 83 143 0.0 5.0 0.00 0.01 0.01 34
20260509100824 82 163 3.0 4.0 0.00 0.01 0.01 36
20260509100324 82 257 0.0 2.0 0.00 0.01 0.01 37
20260509095824 81 230 0.0 3.0 0.00 0.01 0.01 37
20260509095324 80 272 0.0 7.0 0.00 0.01 0.01 37
20260509094824 80 234 5.0 5.0 0.00 0.01 0.01 38
20260509094324 80 77 0.0 1.0 0.00 0.01 0.01 37
20260509093824 80 98 0.0 4.0 0.00 0.01 0.01 39
20260509093324 79 265 0.0 5.0 0.00 0.01 0.01 40
20260509092824 78 61 0.0 3.0 0.00 0.01 0.01 42
20260509092326 76 247 0.0 0.0 0.00 0.01 0.01 44
20260509092324 76 247 0.0 0.0 0.00 0.01 0.01 44
20260509091824 75 247 0.0 3.0 0.00 0.01 0.01 43
20260509091324 75 250 2.0 2.0 0.00 0.01 0.01 45
20260509090824 73 164 0.0 5.0 0.00 0.01 0.01 45
20260509090324 72 210 2.0 5.0 0.00 0.01 0.01 46
20260509085824 72 153 0.0 4.0 0.00 0.01 0.01 46
20260509085324 72 268 0.0 5.0 0.00 0.01 0.01 46
20260509084824 71 35 0.0 4.0 0.00 0.01 0.01 47
20260509084324 70 71 2.0 5.0 0.00 0.01 0.01 48
20260509083824 69 272 1.0 4.0 0.00 0.01 0.01 49
20260509083324 69 240 1.0 6.0 0.00 0.01 0.01 49
20260509082824 69 232 2.0 8.0 0.00 0.01 0.01 51
20260509082324 68 157 1.0 4.0 0.00 0.01 0.01 52
20260509081824 68 147 2.0 5.0 0.00 0.01 0.01 52
20260509081324 67 239 2.0 5.0 0.00 0.01 0.01 53
20260509080824 68 177 2.0 4.0 0.00 0.01 0.01 54
20260509080324 67 87 2.0 4.0 0.00 0.01 0.01 56
20260509075824 67 194 0.0 7.0 0.00 0.01 0.01 57
20260509075324 66 120 0.0 3.0 0.00 0.01 0.01 58
20260509074824 66 84 0.0 4.0 0.00 0.01 0.01 59
20260509074324 65 68 0.0 4.0 0.00 0.01 0.01 59
20260509073824 65 99 1.0 4.0 0.00 0.01 0.01 60
20260509073324 63 42 0.0 4.0 0.00 0.01 0.01 61
20260509072824 63 71 0.0 2.0 0.00 0.01 0.01 62
20260509072324 63 101 0.0 4.0 0.00 0.01 0.01 63
20260509071824 62 75 2.0 3.0 0.00 0.01 0.01 63
20260509071324 62 59 2.0 4.0 0.00 0.01 0.01 64
20260509070824 61 88 0.0 5.0 0.00 0.01 0.01 64
20260509070324 60 91 1.0 4.0 0.00 0.01 0.01 66
20260509065824 59 109 2.0 4.0 0.00 0.01 0.01 67
20260509065324 59 267 0.0 3.0 0.00 0.01 0.01 67
20260509064824 59 49 1.0 4.0 0.00 0.01 0.01 67
20260509064324 58 66 3.0 4.0 0.00 0.01 0.01 68
20260509063824 57 88 1.0 5.0 0.00 0.01 0.01 68
20260509063324 57 111 0.0 5.0 0.00 0.01 0.01 69
20260509062824 55 123 0.0 4.0 0.00 0.01 0.01 69
20260509062324 57 80 3.0 5.0 0.00 0.01 0.01 70
20260509061824 56 94 3.0 4.0 0.00 0.01 0.01 70
20260509061324 55 42 2.0 4.0 0.00 0.01 0.01 71
20260509060824 55 97 0.0 5.0 0.00 0.01 0.01 71
20260509060324 55 52 2.0 4.0 0.00 0.01 0.01 72
20260509055824 54 85 1.0 5.0 0.00 0.01 0.01 72
20260509055324 54 313 0.0 5.0 0.00 0.01 0.01 73
20260509054824 54 85 2.0 7.0 0.00 0.01 0.01 74
20260509054324 54 77 1.0 4.0 0.00 0.01 0.01 74
20260509053824 53 324 0.0 4.0 0.00 0.01 0.01 75
20260509053324 53 14 0.0 5.0 0.00 0.01 0.01 75
20260509052825 52 25 0.0 1.0 0.00 0.01 0.01 76
20260509052324 52 23 0.0 3.0 0.00 0.01 0.01 76
20260509051824 51 67 3.0 3.0 0.00 0.01 0.01 77
20260509051325 50 73 0.0 0.0 0.00 0.01 0.01 77
20260509050825 50 73 0.0 0.0 0.00 0.01 0.01 76
20260509050325 50 73 0.0 1.0 0.00 0.01 0.01 76
20260509045825 50 70 0.0 0.0 0.00 0.01 0.01 76
20260509045325 50 70 0.0 3.0 0.00 0.01 0.01 76
20260509044825 51 327 0.0 3.0 0.00 0.01 0.01 76
20260509044325 50 16 0.0 4.0 0.00 0.01 0.01 76
20260509043825 50 19 0.0 0.0 0.00 0.01 0.01 75
20260509043325 50 19 0.0 0.0 0.00 0.01 0.01 75
20260509042825 51 19 0.0 0.0 0.00 0.01 0.01 75
20260509042325 51 19 0.0 2.0 0.00 0.01 0.01 75
20260509041825 51 49 0.0 3.0 0.00 0.01 0.01 74
20260509041325 51 11 0.0 2.0 0.00 0.01 0.01 74
20260509040825 51 85 1.0 2.0 0.00 0.01 0.01 74
20260509040325 51 15 0.0 3.0 0.00 0.01 0.01 74
20260509035825 51 67 0.0 2.0 0.00 0.01 0.01 73
20260509035325 52 42 1.0 4.0 0.00 0.01 0.01 73
20260509034825 52 73 2.0 4.0 0.00 0.01 0.01 73
20260509034325 52 46 3.0 5.0 0.00 0.01 0.01 73
20260509033825 52 22 1.0 4.0 0.00 0.01 0.01 72
20260509033325 52 64 0.0 3.0 0.00 0.01 0.01 72
20260509032825 53 109 2.0 2.0 0.00 0.01 0.01 72
20260509032325 52 97 2.0 4.0 0.00 0.01 0.01 71
20260509031825 52 45 0.0 5.0 0.00 0.01 0.01 71
20260509031325 52 28 0.0 3.0 0.00 0.01 0.01 70
20260509030825 53 50 1.0 4.0 0.00 0.01 0.01 70
20260509030325 53 122 1.0 5.0 0.00 0.01 0.01 70
20260509025825 53 84 3.0 4.0 0.00 0.01 0.01 70
20260509025325 52 108 1.0 6.0 0.00 0.01 0.01 70
20260509024825 53 73 4.0 4.0 0.00 0.01 0.01 70
20260509024325 52 70 0.0 7.0 0.00 0.01 0.01 70
20260509023825 52 77 6.0 6.0 0.00 0.01 0.01 70
20260509023325 53 64 2.0 3.0 0.00 0.01 0.01 69
20260509022825 53 40 0.0 4.0 0.00 0.01 0.01 69
20260509022325 53 78 3.0 5.0 0.00 0.01 0.01 69
20260509021825 54 92 0.0 3.0 0.00 0.01 0.01 69
20260509021325 53 21 0.0 5.0 0.00 0.01 0.01 69
20260509020825 53 84 0.0 3.0 0.00 0.01 0.01 69
20260509020325 53 82 3.0 5.0 0.00 0.01 0.01 69
20260509015825 53 0 0.0 4.0 0.00 0.01 0.01 69
20260509015325 53 118 0.0 3.0 0.00 0.01 0.01 68
20260509014825 53 49 0.0 5.0 0.00 0.01 0.01 68
20260509014325 53 11 1.0 5.0 0.00 0.01 0.01 68
20260509013825 54 25 0.0 3.0 0.00 0.01 0.01 68
20260509013325 53 109 0.0 3.0 0.00 0.01 0.01 68
20260509012825 54 61 3.0 3.0 0.00 0.01 0.01 68
20260509012325 54 5 0.0 2.0 0.00 0.01 0.01 67
20260509011825 54 298 0.0 5.0 0.01 0.01 0.01 67
20260509011325 54 15 0.0 5.0 0.01 0.01 0.01 67
20260509010825 54 53 0.0 4.0 0.01 0.01 0.01 67
20260509010325 54 104 1.0 4.0 0.01 0.01 0.01 67